User: anonymous   Login
Location: Hurstbourne Priors
(51.2000°N, 1.3667°W)
Time: 15:02:59
(UTC+00:00)
Language:

A-11 Canister half - Orbit

View from above orbital plane
View from above orbital plane
View from above satellite
View from above satellite

Ground track
Ground track

The orbit data is extracted from the following two-line orbital elements,

1 00051U 60009C   21100.49578388 -.00000079  00000-0  54521-4 0  9995
2 00051  47.2116 148.4485 0106777 324.9451  34.4344 12.18274292700309
Epoch (UTC): 10 April 2021 11:53:55
Eccentricity: 0.0106777
inclination: 47.2116°
perigee height: 1515 km
apogee height: 1685 km
right ascension of ascending node: 148.4485°
argument of perigee: 324.9451°
revolutions per day: 12.18274292
mean anomaly at epoch: 34.4344°
orbit number at epoch: 70030

The dashed part of the orbit path shows where the satellite is in the earth's shadow,  

DLR